Погода в Мерлине

Россия / Смоленская область     54°36′04″N   31°35′14″E
темп.,
°C
ветер,
м/с
пор.,
м/с
влажн.,
%
обл.,
%
осадки,
мм/ч
давл.,
гПа
погр.,
м
18 мая, вт
вт1800:00+15юв37935 0.0 1002112
03:00+15вюв41097100 0.0 1002258
06:00+15юв51297100 0.0 1002430
09:00+17ююв6108999 0.1 1003717
12:00+19ююв5774100 0.1 1004848
15:00+15ююв4895100 4.3 1003308
18:00+18вюв468197 0.4 1002534
21:00+15ююв2298100 4.6 100179
19 мая, ср
ср1900:00+14ююв31095100 1.8 1001354
03:00+12юв389842 1.8 1002203
06:00+12юв3899100 0.5 1002274
09:00+15ююв5886100 0.5 1003630
12:00+17ю687697 0.8 10031074
15:00+19ю566491 1.1 10041490
18:00+18ююв3578100 0.8 1004716
21:00+14ю2389100 3.1 100555
20 мая, чт
чт2000:00+13с2296100 1.2 100445
03:00+13ссв3699100 3.8 1002270
06:00+13св3799100 1.1 1001392
09:00+13ююв3496100 1.3 1000294
12:00+12ююв5896100 0.6 1000352
15:00+11ююв5796100 3.1 1000476
18:00+9зюз6896100 0.5 1001646
21:00+8з61196100 2.5 1002783
21 мая, пт
пт2100:00+8з61296100 1.4 1003959
03:00+8зсз91693100 3.6 10051143
06:00+9зсз81493100 0.6 10081316
09:00+9зсз7148318 0.6 1011732
12:00+14з79620 0.0 10131229
15:00+15з6856100 0.0 10141414
18:00+14зюз4667100 0.0 10151240
21:00+10зюз34815 0.0 101762
22 мая, сб
сб2200:00+7зюз35865 0.0 101873
03:00+6з22890 0.0 101910
06:00+7с11835 0.0 101915
09:00+13вюв11660 0.0 1019411
12:00+16ююв22540 0.0 10191440
15:00+17ю23523 0.0 10181619
18:00+17ю235713 0.0 10171615
21:00+12юв127356 0.0 101610